When you browse on this site, cookies collect data to enhance your experience and personalize the content and advertising you see.
Visit our Privacy Policy to learn more. By continuing to use the site, you agree to this use of cookies and data.
  • în România
  • Lista ţărilor
  • Pe 7 zile
  • Temperatura apei
  • Hartă satelitară
  • Meteo pe hartă
  • Widget-uri
  • user-avatar
    Intrare

    Meteo pe oră la Bracknell

    Astăzi, 19 Aprilie, Vineri

    Timp Temperatura Precipitaţii Vânt Presiune Umiditate
    00:00 +11°C° 0 mm 3 m/s 762 mmHg 72%
    01:00 +10°C° 0 mm 3 m/s 762 mmHg 76%
    02:00 +10°C° 0 mm 3 m/s 762 mmHg 80%
    03:00 +10°C° 0 mm 3 m/s 762 mmHg 84%
    04:00 +10°C° 0 mm 3 m/s 763 mmHg 85%
    05:00 +10°C° 0 mm 3 m/s 763 mmHg 86%
    06:00 +10°C° 0 mm 3 m/s 763 mmHg 87%
    07:00 +12°C° 0 mm 3 m/s 764 mmHg 81%
    08:00 +14°C° 0 mm 3 m/s 764 mmHg 75%
    09:00 +17°C° 0 mm 4 m/s 764 mmHg 70%
    10:00 +18°C° 0 mm 4 m/s 764 mmHg 64%
    11:00 +19°C° 0 mm 4 m/s 764 mmHg 59%
    12:00 +21°C° 0 mm 4 m/s 765 mmHg 53%
    13:00 +21°C° 0 mm 4 m/s 765 mmHg 53%
    14:00 +21°C° 0 mm 4 m/s 765 mmHg 52%
    15:00 +21°C° 0 mm 4 m/s 765 mmHg 51%
    16:00 +20°C° 0 mm 3 m/s 765 mmHg 55%
    17:00 +19°C° 0 mm 3 m/s 765 mmHg 59%
    18:00 +18°C° 0 mm 3 m/s 765 mmHg 63%
    19:00 +16°C° 0 mm 3 m/s 765 mmHg 65%
    20:00 +15°C° 0 mm 2 m/s 766 mmHg 68%
    21:00 +13°C° 0 mm 2 m/s 766 mmHg 70%
    22:00 +12°C° 0 mm 2 m/s 766 mmHg 74%
    23:00 +12°C° 0 mm 2 m/s 766 mmHg 77%

    Mâine, 20 Aprilie, Sâmbătă

    Timp Temperatura Precipitaţii Vânt Presiune Umiditate
    00:00 +10°C° 0 mm 2 m/s 766 mmHg 81%
    01:00 +10°C° 0 mm 2 m/s 766 mmHg 83%
    02:00 +9°C° 0 mm 3 m/s 766 mmHg 84%
    03:00 +9°C° 0 mm 3 m/s 766 mmHg 85%
    04:00 +9°C° 0 mm 3 m/s 766 mmHg 86%
    05:00 +9°C° 0 mm 3 m/s 766 mmHg 87%
    06:00 +9°C° 0 mm 3 m/s 766 mmHg 88%
    07:00 +11°C° 0 mm 3 m/s 766 mmHg 83%
    08:00 +13°C° 0 mm 3 m/s 766 mmHg 78%
    09:00 +16°C° 0 mm 3 m/s 766 mmHg 73%
    10:00 +18°C° 0 mm 4 m/s 766 mmHg 68%
    11:00 +19°C° 0 mm 4 m/s 766 mmHg 62%
    12:00 +21°C° 0 mm 4 m/s 765 mmHg 57%
    13:00 +21°C° 0 mm 3 m/s 765 mmHg 55%
    14:00 +22°C° 0 mm 3 m/s 765 mmHg 53%
    15:00 +22°C° 0 mm 3 m/s 764 mmHg 51%
    16:00 +21°C° 0 mm 3 m/s 764 mmHg 56%
    17:00 +20°C° 0 mm 2 m/s 764 mmHg 61%
    18:00 +19°C° 0 mm 2 m/s 764 mmHg 66%
    19:00 +17°C° 0 mm 2 m/s 764 mmHg 68%
    20:00 +16°C° 0 mm 2 m/s 764 mmHg 71%
    21:00 +14°C° 0 mm 2 m/s 764 mmHg 74%
    22:00 +13°C° 0 mm 2 m/s 763 mmHg 75%
    23:00 +12°C° 0 mm 2 m/s 763 mmHg 76%

    Poimâine, 21 Aprilie, Duminică

    Timp Temperatura Precipitaţii Vânt Presiune Umiditate
    00:00 +12°C° 0 mm 2 m/s 763 mmHg 78%
    01:00 +10°C° 0 mm 2 m/s 762 mmHg 79%
    02:00 +9°C° 0 mm 2 m/s 762 mmHg 81%
    03:00 +9°C° 0 mm 2 m/s 761 mmHg 82%
    04:00 +9°C° 0 mm 2 m/s 761 mmHg 83%
    05:00 +9°C° 0 mm 2 m/s 761 mmHg 83%
    06:00 +9°C° 0 mm 2 m/s 760 mmHg 84%
    07:00 +12°C° 0 mm 2 m/s 760 mmHg 79%
    08:00 +14°C° 0 mm 2 m/s 760 mmHg 73%
    09:00 +17°C° 0 mm 2 m/s 760 mmHg 68%
    10:00 +18°C° 0 mm 2 m/s 759 mmHg 62%
    11:00 +19°C° 0 mm 2 m/s 759 mmHg 55%
    12:00 +21°C° 0 mm 2 m/s 758 mmHg 49%
    13:00 +21°C° 0 mm 2 m/s 757 mmHg 48%
    14:00 +21°C° 0 mm 2 m/s 757 mmHg 47%
    15:00 +23°C° 0 mm 2 m/s 756 mmHg 45%
    16:00 +21°C° 0 mm 2 m/s 755 mmHg 51%
    17:00 +20°C° 0 mm 2 m/s 755 mmHg 58%
    18:00 +19°C° 0 mm 2 m/s 755 mmHg 64%
    19:00 +17°C° 0 mm 2 m/s 754 mmHg 70%
    20:00 +15°C° 0 mm 2 m/s 754 mmHg 76%
    21:00 +14°C° 0 mm 2 m/s 754 mmHg 82%
    22:00 +13°C° 0 mm 2 m/s 754 mmHg 83%
    23:00 +12°C° 0 mm 1 m/s 753 mmHg 85%

    22 Aprilie, Luni

    Timp Temperatura Precipitaţii Vânt Presiune Umiditate
    00:00 +12°C° 0 mm 1 m/s 753 mmHg 87%
    01:00 +11°C° 0 mm 1 m/s 752 mmHg 87%
    02:00 +11°C° 0 mm 1 m/s 752 mmHg 87%
    03:00 +11°C° 0 mm 1 m/s 751 mmHg 87%
    04:00 +11°C° 0 mm 1 m/s 751 mmHg 87%
    05:00 +11°C° 0 mm 1 m/s 750 mmHg 87%
    06:00 +10°C° 0 mm 2 m/s 750 mmHg 86%
    07:00 +13°C° 0 mm 2 m/s 750 mmHg 80%
    08:00 +16°C° 0 mm 2 m/s 750 mmHg 73%
    09:00 +18°C° 0 mm 2 m/s 750 mmHg 66%
    10:00 +19°C° 0 mm 3 m/s 749 mmHg 61%
    11:00 +20°C° 0 mm 3 m/s 749 mmHg 56%
    12:00 +21°C° 0 mm 3 m/s 749 mmHg 51%
    13:00 +21°C° 0 mm 3 m/s 748 mmHg 51%
    14:00 +21°C° 0 mm 4 m/s 747 mmHg 51%
    15:00 +21°C° 0 mm 4 m/s 747 mmHg 51%
    16:00 +20°C° 0 mm 3 m/s 746 mmHg 56%
    17:00 +19°C° 0 mm 3 m/s 746 mmHg 61%
    18:00 +18°C° 0 mm 3 m/s 746 mmHg 66%
    19:00 +17°C° 0 mm 3 m/s 746 mmHg 68%
    20:00 +14°C° 0 mm 3 m/s 746 mmHg 69%
    21:00 +13°C° 0 mm 3 m/s 746 mmHg 70%
    22:00 +12°C° 0 mm 3 m/s 745 mmHg 71%
    23:00 +12°C° 0 mm 3 m/s 745 mmHg 72%

    23 Aprilie, Marţi

    Timp Temperatura Precipitaţii Vânt Presiune Umiditate
    00:00 +11°C° 0 mm 3 m/s 744 mmHg 73%
    01:00 +11°C° 0 mm 3 m/s 744 mmHg 73%
    02:00 +11°C° 0 mm 3 m/s 744 mmHg 74%
    03:00 +11°C° 0 mm 3 m/s 743 mmHg 75%
    04:00 +11°C° 0.1 mm 3 m/s 743 mmHg 78%
    05:00 +12°C° 0.1 mm 3 m/s 743 mmHg 80%
    06:00 +12°C° 0.1 mm 3 m/s 743 mmHg 83%
    07:00 +13°C° 0.1 mm 3 m/s 743 mmHg 80%
    08:00 +15°C° 0.1 mm 4 m/s 743 mmHg 77%
    09:00 +18°C° 0.1 mm 4 m/s 743 mmHg 74%
    10:00 +18°C° 0.5 mm 4 m/s 743 mmHg 71%
    11:00 +19°C° 0.5 mm 5 m/s 743 mmHg 67%
    12:00 +20°C° 0.5 mm 5 m/s 743 mmHg 64%
    13:00 +20°C° 0.3 mm 5 m/s 743 mmHg 63%
    14:00 +20°C° 0.3 mm 5 m/s 743 mmHg 62%
    15:00 +20°C° 0.3 mm 4 m/s 743 mmHg 61%
    16:00 +19°C° 0 mm 4 m/s 743 mmHg 64%
    17:00 +19°C° 0 mm 3 m/s 743 mmHg 67%
    18:00 +18°C° 0 mm 3 m/s 743 mmHg 70%
    19:00 +17°C° 0 mm 3 m/s 743 mmHg 73%
    20:00 +14°C° 0 mm 3 m/s 743 mmHg 77%
    21:00 +13°C° 0 mm 3 m/s 744 mmHg 80%
    22:00 +13°C° 0 mm 3 m/s 744 mmHg 81%
    23:00 +12°C° 0 mm 3 m/s 744 mmHg 83%

    24 Aprilie, Miercuri

    Timp Temperatura Precipitaţii Vânt Presiune Umiditate
    00:00 +12°C° 0 mm 3 m/s 744 mmHg 84%
    01:00 +12°C° 0 mm 3 m/s 744 mmHg 85%
    02:00 +12°C° 0 mm 3 m/s 744 mmHg 87%
    03:00 +12°C° 0 mm 3 m/s 744 mmHg 88%
    04:00 +12°C° 0 mm 3 m/s 744 mmHg 90%
    05:00 +13°C° 0 mm 2 m/s 744 mmHg 92%
    06:00 +13°C° 0 mm 2 m/s 745 mmHg 94%
    07:00 +14°C° 0.1 mm 2 m/s 745 mmHg 89%
    08:00 +14°C° 0.1 mm 3 m/s 745 mmHg 84%
    09:00 +16°C° 0.1 mm 3 m/s 746 mmHg 80%
    10:00 +17°C° 0.1 mm 4 m/s 746 mmHg 77%
    11:00 +17°C° 0.1 mm 4 m/s 746 mmHg 75%
    12:00 +17°C° 0.1 mm 5 m/s 746 mmHg 72%
    13:00 +17°C° 0.1 mm 5 m/s 746 mmHg 74%
    14:00 +17°C° 0.1 mm 4 m/s 746 mmHg 75%
    15:00 +17°C° 0.1 mm 4 m/s 746 mmHg 76%
    16:00 +15°C° 0.6 mm 4 m/s 746 mmHg 80%
    17:00 +14°C° 0.6 mm 4 m/s 746 mmHg 84%
    18:00 +13°C° 0.6 mm 4 m/s 746 mmHg 88%
    19:00 +13°C° 0.1 mm 3 m/s 747 mmHg 90%
    20:00 +12°C° 0.1 mm 3 m/s 747 mmHg 92%
    21:00 +13°C° 0.1 mm 2 m/s 747 mmHg 94%
    22:00 +12°C° 0 mm 2 m/s 747 mmHg 94%
    23:00 +12°C° 0 mm 1 m/s 747 mmHg 94%
    Arată mai mult